Wind_Speed
23 21 20 20 20 19 18 18 17 17 16 16 16 15 12 11 12 13 14 14 13 12 11 11 10 8 8 6 5 6 6 7 8 9 12 16 20 17 10 7 5 5 6 10 11 10 10 11 11 11 9 6 1 2 3 3 1 3 3 2 2 2 4 3 1 2 2 1 2 2 2 6 4 1 1 2 5 3 2 2 3 6 6 8 15 23 25 23
23 22 21 20 20 20 19 19 18 18 17 16 16 15 13 12 11 12 13 14 14 12 11 11 11 10 8 6 5 5 5 7 8 11 20 21 18 18 16 16 13 7 5 8 8 6 5 7 11 9 4 2 2 2 2 3 1 3 2 2 3 5 5 2 0 2 2 1 1 2 3 4 5 2 2 2 1 3 3 1 4 7 5 9 16 23 23 22
24 23 22 21 20 20 20 20 19 18 18 17 16 15 15 13 11 11 11 13 14 13 12 10 11 10 8 7 5 4 3 5 6 12 24 23 18 19 17 17 16 11 9 8 6 6 7 9 13 9 2 2 3 2 1 2 1 2 3 2 4 6 4 4 2 2 1 3 4 4 4 4 2 2 1 2 3 3 5 3 4 5 4 7 10 18 22 21
24 24 23 22 20 20 20 20 20 18 18 18 17 16 15 14 12 11 10 12 14 14 12 10 11 10 9 7 6 4 1 3 4 11 24 23 19 20 18 18 16 13 12 9 5 6 9 12 14 8 1 3 4 1 2 3 2 2 4 4 5 5 3 3 2 3 2 4 5 2 5 5 1 2 2 3 2 1 4 4 6 8 10 10 9 14 19 19
25 24 23 23 21 20 19 20 20 19 18 18 18 16 15 15 13 11 10 11 13 14 13 11 11 10 9 7 7 6 4 2 3 8 18 21 20 19 19 20 17 15 14 10 5 6 10 10 8 3 1 1 3 2 3 5 2 2 4 6 6 4 3 4 2 2 2 4 5 4 4 2 2 1 1 4 2 4 4 4 6 7 11 14 13 15 16 16
26 25 23 23 22 20 20 19 20 19 19 17 17 17 16 15 14 12 11 11 12 13 14 11 11 11 10 8 8 9 7 2 1 4 7 10 16 18 20 22 18 16 14 9 5 5 7 5 3 1 2 1 3 4 5 5 3 3 5 4 5 5 5 4 2 1 4 6 4 3 1 1 3 3 2 4 4 6 5 5 5 3 12 19 16 15 13 12
26 25 24 23 23 22 20 20 20 20 19 18 17 17 16 16 14 13 12 11 11 13 14 12 11 11 10 8 10 9 7 4 3 10 9 7 7 15 20 21 18 17 14 9 6 3 3 3 2 1 3 2 4 5 6 5 4 4 5 4 6 7 5 2 2 2 5 5 3 3 1 1 1 2 1 2 6 7 6 5 7 8 13 18 14 13 13 13
27 26 25 24 23 23 21 21 20 20 20 19 18 18 17 16 15 14 13 12 11 12 15 13 12 11 11 10 9 7 7 10 8 12 8 7 7 9 19 20 18 17 15 12 9 6 3 3 4 3 3 4 4 5 5 5 4 5 6 5 5 6 4 3 5 4 4 3 3 4 0 3 5 2 1 5 7 6 5 4 7 10 14 14 12 12 11 12
27 26 26 25 24 23 22 22 21 20 20 20 20 19 18 17 16 15 13 13 11 13 15 15 13 12 14 11 5 6 9 16 19 13 7 2 3 8 17 18 18 18 14 14 12 8 4 3 5 4 3 5 5 5 4 4 4 6 8 6 5 6 5 4 5 5 5 3 4 3 3 6 5 2 3 7 7 7 5 4 5 9 11 10 11 12 11 11
27 27 26 26 25 24 23 23 22 21 20 20 21 20 20 18 16 15 14 14 12 13 15 16 14 13 16 11 6 8 5 10 22 22 16 8 6 12 16 14 17 20 15 13 14 10 6 5 3 1 1 3 3 4 5 5 4 5 8 8 6 6 6 4 5 6 5 3 5 5 6 6 5 3 3 6 8 8 6 6 6 7 9 10 9 10 12 12
27 27 27 26 25 25 24 23 23 22 21 21 21 21 21 19 17 16 15 15 13 13 16 17 16 16 17 10 8 8 2 6 16 19 19 13 12 14 15 13 16 21 17 12 14 14 10 8 1 3 1 2 1 4 5 5 4 6 6 7 8 6 6 5 5 6 4 2 5 7 5 5 2 3 6 7 8 7 7 8 7 7 8 9 9 9 10 11
27 27 26 26 25 25 25 24 24 22 22 21 21 21 21 20 18 17 16 15 15 14 16 18 18 17 15 8 11 10 3 5 12 15 19 17 15 15 16 16 15 19 19 13 11 13 11 6 2 2 2 1 1 2 4 3 4 6 4 5 8 5 6 6 5 5 5 3 5 5 3 5 5 6 8 9 9 7 6 7 7 8 7 7 8 7 7 11
27 27 26 26 25 25 25 25 25 24 22 21 21 21 21 20 19 18 16 16 16 14 15 18 18 18 13 5 10 15 9 5 9 15 18 17 15 16 17 18 17 17 18 15 11 7 6 4 5 3 1 1 2 2 4 4 3 6 4 2 4 5 5 5 5 5 5 4 6 6 3 6 7 10 10 10 10 7 5 7 6 7 7 6 7 6 7 10
26 27 27 26 24 25 24 24 25 24 23 22 21 21 21 21 20 18 17 16 16 15 15 17 18 17 12 6 4 12 18 11 9 14 17 17 15 14 14 17 18 17 17 13 10 6 3 5 6 2 0 2 2 5 6 4 2 3 3 3 2 3 3 4 6 7 5 4 7 7 6 7 6 9 11 10 9 8 8 8 7 7 6 6 7 7 7 9
25 27 27 26 25 25 24 24 24 23 23 22 21 21 20 20 20 19 17 17 16 15 15 16 20 15 5 7 5 8 18 17 15 17 17 20 17 12 12 16 15 14 16 12 8 7 6 8 6 3 1 2 1 4 4 3 2 2 3 3 3 4 2 1 5 8 7 5 6 9 6 6 7 10 11 9 8 9 10 9 9 8 8 7 7 8 7 8
24 26 27 28 27 26 25 24 24 23 22 22 21 20 20 20 20 20 18 16 15 15 15 13 19 17 1 4 7 8 13 17 22 21 18 21 20 15 15 15 12 11 13 10 10 10 8 6 3 2 2 3 3 2 2 2 3 2 4 3 3 4 3 3 5 7 9 4 4 9 6 3 6 9 8 7 6 9 9 9 10 9 8 8 7 7 7 8
24 25 26 27 27 27 26 25 24 23 22 22 20 19 19 19 19 20 18 16 13 13 14 9 15 17 4 2 6 7 13 16 22 23 21 22 19 19 19 11 9 11 11 10 10 7 6 3 1 0 2 2 3 4 2 6 6 3 2 3 3 3 2 3 5 6 9 7 6 10 10 6 6 7 8 5 2 7 9 9 9 8 8 8 7 6 7 7
23 24 25 26 26 26 26 25 24 24 23 21 20 18 18 17 18 17 16 15 10 9 14 10 11 12 5 8 7 7 15 18 21 24 23 22 19 22 20 10 9 12 9 5 5 4 2 1 1 1 2 3 4 5 6 6 5 4 4 3 2 3 4 5 5 4 9 10 9 11 10 10 9 9 9 8 2 3 7 8 7 8 7 7 6 6 6 6
23 23 25 26 26 26 26 26 25 25 23 21 20 17 14 13 11 12 13 12 7 5 7 7 10 6 1 9 11 7 15 21 22 23 21 19 18 20 17 14 12 9 6 3 2 4 3 2 2 3 4 6 7 8 10 5 3 7 6 4 4 5 7 6 5 5 9 10 9 11 11 10 11 12 10 8 7 5 6 6 6 7 7 7 6 6 6 7
23 24 25 25 26 26 25 26 26 26 24 21 19 13 7 7 5 5 8 8 9 8 6 5 10 10 5 2 10 13 12 15 13 16 23 21 19 17 9 8 8 4 6 7 5 5 5 4 4 6 6 7 7 8 10 7 6 6 5 6 7 7 6 4 4 5 5 8 8 10 11 10 10 12 10 8 8 7 8 8 7 7 7 7 7 7 8 7
23 24 25 25 26 25 25 25 25 27 25 23 21 10 3 8 6 3 6 5 11 15 12 6 4 11 11 5 11 19 9 4 5 12 26 26 22 15 3 4 6 4 6 7 6 4 5 7 11 12 10 7 7 8 8 9 10 6 4 5 5 5 5 4 4 4 2 5 6 7 10 11 9 10 10 7 7 7 8 9 8 9 8 7 7 8 9 7
22 23 24 24 24 24 25 24 25 26 25 24 21 9 4 12 8 5 6 3 9 15 15 11 5 8 12 7 11 22 10 4 7 10 23 25 18 13 6 6 8 6 6 7 6 5 5 11 18 16 12 9 8 9 9 10 11 7 4 3 2 2 2 4 4 3 2 4 4 4 6 9 9 9 9 7 6 6 7 8 8 9 9 7 7 8 9 8
23 23 24 24 23 24 24 25 25 24 25 24 20 14 10 15 11 3 5 1 5 10 11 13 11 9 9 5 9 17 9 8 9 11 21 21 13 12 10 9 10 8 8 10 9 7 6 11 13 11 12 13 10 9 10 9 9 8 6 5 4 3 1 3 4 4 3 3 3 4 5 6 5 6 8 7 7 5 6 8 8 8 8 9 9 8 9 10
24 24 24 24 24 23 23 25 23 22 26 23 21 23 17 12 12 8 1 1 4 6 12 16 13 10 9 5 8 12 7 8 10 12 20 18 10 10 11 12 13 8 8 13 13 11 8 4 8 11 11 15 12 10 10 8 7 9 9 9 8 5 4 3 1 3 4 5 5 5 6 6 5 6 8 7 6 5 6 7 8 8 8 8 7 7 9 9
24 25 25 24 23 23 24 22 21 23 24 22 23 27 22 12 9 9 3 1 4 2 10 16 10 10 12 6 8 8 3 5 9 14 20 19 13 10 8 8 9 10 12 15 12 10 7 2 10 13 11 13 12 10 11 9 7 8 10 12 10 7 6 3 3 3 3 3 3 2 4 5 4 6 9 7 6 6 5 7 9 10 10 9 8 9 9 9
25 25 24 24 23 24 21 13 18 24 19 19 25 25 24 17 7 7 6 2 5 2 7 12 7 12 16 8 6 4 3 5 5 15 25 23 18 11 7 6 4 10 14 10 6 4 2 2 7 12 12 13 12 10 12 11 7 6 5 8 11 8 6 5 4 4 1 3 3 3 5 5 3 4 7 5 5 7 5 6 9 9 10 10 9 10 10 9
25 24 24 24 23 24 15 4 14 22 12 15 25 23 24 21 10 7 5 3 5 4 6 8 6 14 17 12 14 7 5 6 2 9 22 23 18 8 7 10 6 8 10 6 4 4 7 8 8 11 11 11 11 9 10 11 8 3 3 1 9 9 8 8 6 4 3 2 3 3 4 4 4 4 7 6 6 9 8 7 9 9 10 10 10 11 11 11
26 25 25 24 24 25 17 9 16 20 12 11 19 23 24 21 13 6 3 5 4 5 6 6 5 11 12 13 19 9 3 10 8 9 19 24 17 3 5 14 12 12 12 10 8 6 11 14 12 12 9 7 7 5 9 12 7 1 3 5 3 3 4 6 7 4 2 1 4 5 3 4 5 4 6 7 7 10 11 9 10 11 10 9 10 11 11 11
28 26 26 25 23 25 22 17 18 19 16 13 17 26 26 20 12 4 3 5 1 2 5 8 7 7 8 10 16 12 3 4 6 7 15 19 11 1 3 11 13 14 14 13 11 4 6 13 14 12 7 5 6 5 8 11 7 4 4 6 6 4 4 3 4 5 3 1 7 6 4 4 4 3 4 4 5 8 9 9 9 9 10 9 10 11 11 10
30 27 27 26 23 24 23 18 17 18 20 19 22 31 28 16 7 3 7 5 1 1 2 7 10 10 14 12 11 14 11 3 1 7 12 10 6 2 1 1 5 8 9 12 10 2 2 8 9 7 6 6 6 5 4 8 9 6 4 5 4 3 4 3 1 3 4 5 8 8 8 5 3 3 5 4 5 8 8 7 7 7 9 10 9 9 9 7
31 29 29 28 24 25 20 14 17 18 21 27 31 31 20 8 4 6 7 1 2 4 4 7 12 14 19 18 9 12 16 9 4 8 10 7 6 6 3 1 2 5 6 8 6 2 3 7 5 4 6 6 7 5 3 5 8 6 5 4 3 3 2 3 2 1 3 6 5 8 9 7 5 5 4 4 5 5 6 6 7 8 8 9 10 7 4 2
32 30 31 29 26 28 21 16 22 22 23 33 32 19 9 5 6 6 5 3 1 4 6 8 13 15 20 20 13 14 16 11 8 10 11 10 6 8 11 8 7 7 6 7 7 4 4 7 7 4 5 8 8 5 3 4 6 5 4 4 2 1 1 1 1 1 3 5 3 6 8 6 6 9 8 9 8 6 6 6 7 9 9 9 8 5 2 1
34 32 32 30 28 29 24 19 25 24 24 31 22 9 6 7 6 7 6 4 2 3 4 8 12 16 20 18 14 14 14 11 12 12 12 13 9 10 13 11 11 6 3 9 9 4 3 6 8 6 3 8 11 9 6 5 8 9 8 7 6 4 2 2 2 0 0 3 4 3 5 3 5 7 10 11 9 8 8 8 9 10 12 11 7 5 4 2
35 33 33 32 29 29 26 21 24 26 26 24 12 7 9 7 5 11 10 6 2 3 4 9 12 15 18 17 14 14 12 10 14 15 12 13 10 10 12 11 12 5 3 8 7 6 8 5 9 11 6 9 14 13 11 8 8 9 6 6 6 5 4 3 3 2 2 1 4 2 3 4 4 4 6 8 8 8 8 8 9 10 12 9 4 2 3 1
36 35 33 30 27 27 28 23 25 29 25 15 6 7 10 8 5 8 10 7 2 1 3 7 13 14 13 13 13 16 12 8 14 14 12 12 9 9 11 11 13 8 5 8 4 7 10 4 9 12 8 14 16 9 8 8 5 5 4 5 5 4 4 2 1 3 3 1 2 2 2 4 4 5 6 5 6 8 9 8 7 8 8 5 3 4 4 3
34 32 28 27 26 27 30 25 28 33 23 8 7 8 8 7 5 4 6 8 5 3 2 6 12 13 11 9 10 15 13 6 12 12 9 12 11 11 12 9 12 12 9 8 3 5 8 4 10 11 6 15 16 9 9 7 5 5 4 6 4 1 5 3 0 2 3 1 3 4 4 4 2 7 9 7 9 11 11 8 5 6 6 3 4 6 5 3
30 25 20 23 26 29 32 30 30 32 18 6 8 9 6 6 5 3 4 8 7 5 1 4 9 12 12 10 9 15 13 5 11 11 6 9 10 12 14 9 12 15 11 7 3 3 5 3 9 11 9 12 10 9 7 4 4 7 5 6 4 4 3 3 2 2 3 4 4 5 9 5 2 5 5 3 9 11 9 8 6 6 5 4 6 6 4 4
27 21 13 19 28 30 33 32 29 23 10 6 10 9 6 4 4 3 2 4 7 7 4 3 5 10 11 10 9 15 16 9 11 10 7 8 6 12 17 10 10 17 15 9 3 3 5 3 4 9 10 8 6 8 5 3 0 4 6 9 6 1 3 4 4 3 4 5 3 4 7 5 5 8 7 4 8 10 8 7 7 7 6 6 8 5 3 4
21 12 5 17 29 29 32 31 23 13 5 6 10 9 5 2 4 4 3 2 2 5 7 7 4 4 7 10 10 13 16 14 12 9 8 7 4 11 19 12 10 18 18 11 6 4 6 4 3 5 7 8 7 6 7 3 1 3 5 7 4 2 4 5 5 3 3 5 3 3 4 4 6 10 11 11 10 9 7 6 6 8 8 9 8 5 6 7
13 5 2 19 30 29 33 26 13 7 5 6 8 6 4 3 4 4 4 4 2 2 6 9 5 2 5 9 11 11 13 14 13 10 8 8 5 8 16 14 12 17 18 12 7 4 3 3 4 4 5 8 7 8 12 12 7 5 7 8 6 3 1 1 3 2 2 3 3 2 3 5 6 7 10 12 12 11 9 8 8 6 6 6 6 6 8 8
9 4 2 22 33 31 29 15 3 5 5 6 7 3 2 3 5 7 6 4 3 1 2 3 5 4 5 8 11 11 11 11 12 9 6 8 7 4 10 14 14 17 16 10 7 5 4 4 6 5 5 8 8 9 12 14 12 10 9 10 10 7 4 3 3 2 2 2 3 3 5 7 5 5 8 11 10 8 7 7 6 4 4 4 5 7 8 8
8 4 6 28 39 33 21 6 2 5 4 6 7 3 2 3 5 9 8 4 3 1 2 0 3 4 4 5 8 11 11 9 11 11 7 10 10 7 10 14 14 16 15 11 9 6 3 3 5 5 4 5 4 2 5 11 14 11 7 7 8 7 6 6 6 5 3 3 2 2 4 5 3 4 6 6 6 5 5 5 5 5 5 4 5 6 7 8
6 5 13 34 44 31 13 5 4 5 4 3 4 5 5 3 3 5 7 7 4 2 2 2 3 4 5 5 6 10 12 9 11 13 9 10 11 9 12 15 15 15 12 9 9 5 3 3 5 4 1 1 3 5 3 7 10 6 4 5 8 9 8 6 4 5 6 7 5 4 5 4 3 5 3 3 3 3 3 5 5 2 1 1 0 3 4 5
5 3 8 29 43 29 9 6 8 7 5 4 4 7 5 1 3 5 6 7 5 4 3 4 4 3 4 5 6 9 11 9 10 12 9 9 10 8 14 20 19 15 11 9 10 7 3 4 6 5 3 2 1 1 2 5 8 7 8 9 10 11 10 5 2 3 4 7 8 6 5 5 4 3 1 3 2 1 2 2 3 3 3 2 3 3 4 3
6 2 2 14 27 20 6 4 7 8 8 7 7 9 6 2 3 5 6 6 5 5 4 4 5 4 3 4 6 11 11 5 6 7 3 5 7 4 13 22 20 17 16 14 13 9 5 5 7 8 8 8 10 9 8 8 9 7 9 13 13 15 15 8 3 4 4 5 7 5 4 7 7 5 4 1 2 2 5 4 1 1 2 4 5 4 3 2
6 2 1 3 6 6 4 1 4 6 8 8 6 7 8 6 3 3 7 6 4 5 4 4 4 3 3 6 7 10 10 3 2 5 3 5 4 2 11 22 20 18 17 15 14 9 3 4 7 9 11 12 9 6 6 9 10 9 12 16 16 15 15 8 3 5 6 4 5 5 7 9 11 11 9 6 5 6 7 5 3 2 3 4 3 2 1 2
3 2 4 4 2 3 3 1 3 4 6 9 6 6 11 10 4 3 5 6 5 7 5 3 4 4 5 7 7 7 8 3 3 6 6 5 1 4 10 20 19 18 15 13 12 8 3 5 9 9 10 8 3 3 8 13 15 16 18 20 17 15 15 11 8 11 9 6 5 9 8 8 13 16 12 8 8 9 8 6 5 4 5 3 2 3 4 6
3 2 4 3 3 5 7 7 10 9 9 11 7 6 11 12 8 6 4 3 4 6 5 4 6 9 8 9 9 7 6 2 2 5 5 4 3 3 7 8 8 11 12 10 9 7 5 7 9 10 10 5 4 5 10 14 15 15 17 19 19 18 18 17 16 13 9 8 10 12 12 13 16 17 15 10 9 8 9 7 5 1 3 2 5 6 7 8
3 2 2 2 2 6 8 7 10 10 10 11 8 7 11 13 12 9 3 3 4 6 8 9 10 12 12 11 10 8 9 7 3 5 5 5 5 6 6 3 2 1 7 9 7 4 4 7 8 10 12 8 6 8 11 13 12 12 15 18 19 20 20 20 17 13 11 11 14 12 12 15 15 14 16 11 6 7 8 6 2 4 2 4 6 7 8 8
3 1 4 3 1 4 5 4 7 7 7 8 8 6 9 13 15 10 4 6 8 6 9 13 12 10 12 13 10 10 13 15 13 11 10 8 6 6 6 5 2 1 2 5 4 2 4 6 6 9 9 6 4 9 13 14 14 13 14 15 15 16 16 15 14 11 10 11 14 11 9 11 13 12 13 9 2 5 7 5 3 2 2 5 7 8 8 8
1 2 6 5 1 4 6 5 7 7 6 7 8 7 8 13 16 13 6 7 10 8 10 16 15 7 6 11 14 15 14 12 14 16 16 14 9 6 4 5 8 8 4 3 3 2 4 4 3 6 7 4 2 5 6 8 12 13 14 14 14 14 14 14 14 14 14 15 15 10 7 11 12 8 8 10 8 9 8 5 4 2 4 7 7 8 8 7
2 1 5 5 3 4 6 5 5 7 7 9 11 10 10 12 13 13 8 5 8 9 8 12 13 7 3 10 16 15 11 6 7 9 10 8 5 4 3 6 10 10 8 6 4 3 4 4 3 6 7 5 4 4 1 3 7 8 9 14 17 16 16 15 14 16 16 15 13 11 12 14 9 4 4 11 14 12 7 3 3 4 6 8 8 8 9 8
Wind_Direction
239 238 237 237 237 236 235 236 237 239 239 241 246 250 252 251 248 244 245 248 252 254 250 242 236 232 226 233 247 246 253 251 249 237 230 237 236 230 223 221 252 313 295 273 273 284 312 317 298 286 289 296 257 251 267 234 148 65 85 137 214 239 244 235 277 305 106 89 295 266 106 121 140 89 115 41 55 91 93 86 90 56 68 110 128 140 146 152
237 237 236 235 235 234 234 235 235 236 237 237 240 245 248 247 247 245 243 245 247 252 253 246 237 232 233 237 237 242 253 258 262 252 242 243 246 238 232 237 243 257 268 267 264 270 296 297 295 296 292 287 264 272 276 262 150 126 144 165 217 220 235 257 276 332 65 138 283 355 35 105 158 164 97 118 134 117 114 152 96 74 70 109 128 141 149 155
236 235 235 233 232 232 233 234 234 235 235 234 236 239 243 245 245 244 242 241 242 246 251 248 236 230 236 232 227 236 249 277 280 257 247 240 240 239 233 237 239 234 237 255 260 262 267 276 295 304 299 277 275 270 263 273 256 175 171 203 240 232 268 330 76 100 100 125 82 17 19 61 150 152 95 155 161 153 170 196 135 132 159 148 142 147 153 159
237 235 233 232 230 230 231 233 233 233 234 234 233 235 239 243 244 243 241 239 238 238 242 244 233 226 232 228 219 213 192 297 269 246 251 244 235 235 231 233 232 224 224 237 252 266 277 289 299 297 255 280 288 291 209 233 254 193 177 192 231 238 276 322 90 96 58 81 93 45 36 34 326 139 123 126 112 244 217 201 191 193 175 162 161 157 160 164
238 235 233 232 230 229 229 231 232 231 234 233 231 233 236 239 242 243 239 237 235 232 234 235 229 223 228 226 215 200 150 294 262 224 243 243 236 232 229 228 223 219 219 224 242 284 294 298 299 296 106 271 289 311 237 233 207 209 218 201 224 247 262 254 186 101 73 73 79 67 60 14 301 29 103 116 141 242 219 178 182 195 175 166 167 164 166 169
239 236 233 232 231 230 229 228 230 230 233 233 231 231 233 236 238 240 240 236 232 229 229 227 224 219 221 224 216 202 180 227 10 140 194 219 224 223 219 218 213 213 215 217 235 288 304 301 296 276 116 210 251 249 256 248 177 222 258 229 231 240 249 242 203 142 100 81 72 95 143 286 15 331 251 149 197 226 214 181 136 149 170 165 161 161 169 175
236 235 232 232 230 230 228 227 228 228 231 232 231 230 230 232 233 237 239 236 231 227 227 224 221 218 216 218 213 206 205 241 94 116 112 96 177 200 201 203 201 204 207 205 203 220 272 284 273 182 170 220 235 235 255 258 204 222 258 267 255 252 256 216 183 197 111 111 146 138 121 11 65 291 273 197 237 233 221 190 119 113 145 153 156 165 179 181
234 234 233 232 230 230 228 227 227 227 229 229 230 230 227 228 229 233 236 237 231 223 224 221 217 213 208 207 209 214 220 223 175 136 120 73 85 162 184 189 192 196 201 204 194 191 213 243 242 210 194 219 227 234 241 250 240 230 240 254 253 254 255 154 160 169 123 138 144 110 27 240 213 213 265 246 256 251 218 170 123 125 137 150 165 176 185 185
234 233 232 231 230 230 229 227 226 226 226 227 229 230 228 227 225 228 233 235 231 224 223 218 214 209 208 207 211 230 225 220 211 198 214 260 80 147 173 182 190 192 198 207 207 204 196 200 227 215 202 218 235 252 242 236 238 227 231 244 241 244 240 180 179 178 161 177 129 120 247 254 245 222 267 244 239 249 219 165 152 146 148 164 175 182 188 188
234 232 231 231 229 229 229 226 225 225 225 226 227 228 229 228 224 224 227 229 229 226 222 215 211 205 207 209 218 227 226 221 220 225 239 229 162 159 169 179 185 187 191 199 207 211 200 208 226 103 223 238 247 261 250 231 233 236 235 246 244 247 251 215 213 205 177 187 159 169 228 252 253 208 261 257 235 241 232 213 192 159 166 180 182 188 190 191
235 233 231 231 228 227 228 227 226 225 225 225 226 227 227 228 226 223 223 226 226 224 222 215 210 206 203 204 226 225 188 205 210 220 227 204 180 182 183 183 179 183 185 185 203 210 214 227 244 55 265 266 305 296 279 252 264 271 260 270 265 260 270 247 231 213 162 212 184 170 228 258 260 206 225 243 242 236 227 229 209 179 188 189 189 194 192 198
235 235 231 229 227 226 227 228 227 225 225 225 226 226 225 226 228 225 223 224 223 224 222 214 210 209 200 207 232 221 159 189 192 202 212 205 205 210 204 197 185 185 184 177 194 210 219 227 123 128 232 330 324 288 291 305 305 272 258 274 275 278 271 243 228 195 149 224 193 152 277 263 235 232 221 225 237 234 225 234 216 199 205 198 199 203 204 212
232 233 231 229 227 226 228 229 226 224 225 225 225 226 225 226 227 227 224 223 222 222 221 216 212 206 199 223 236 219 215 199 186 198 204 205 209 205 203 198 188 187 187 177 169 181 213 197 143 158 198 332 257 269 291 309 287 245 234 240 274 298 270 216 195 176 162 205 167 133 282 244 226 238 230 228 234 231 233 241 228 212 214 214 210 209 219 222
228 230 231 230 227 226 228 228 226 223 223 225 224 224 225 224 226 227 224 224 223 221 222 219 206 195 200 231 240 218 222 219 207 205 197 196 193 181 185 185 179 179 177 170 153 144 165 151 133 120 152 188 272 324 322 306 252 215 235 241 217 253 247 188 186 172 174 218 149 141 248 247 245 251 240 237 228 215 223 230 226 221 219 219 218 215 223 224
228 228 229 229 225 225 227 227 225 222 221 223 222 223 225 223 225 227 227 225 223 222 222 218 200 184 209 249 239 217 213 212 214 214 201 190 175 158 165 167 162 160 161 154 134 134 137 140 126 97 180 144 39 318 321 323 308 184 205 235 204 220 248 248 225 184 189 235 155 156 240 265 258 254 245 240 223 207 212 218 218 222 222 216 219 220 223 228
228 229 229 229 225 223 225 225 225 222 219 221 220 220 222 223 224 227 231 227 226 222 217 218 196 186 265 255 204 197 193 198 206 211 208 192 177 161 152 148 139 135 143 131 120 121 103 109 112 83 137 117 138 203 320 308 277 235 206 212 195 219 253 298 270 210 194 214 171 187 223 257 253 256 256 253 226 208 211 214 213 216 224 223 222 221 222 231
223 227 228 228 225 222 222 223 224 221 218 219 217 216 219 224 223 226 236 233 231 223 218 224 191 189 238 217 172 185 185 189 196 199 198 193 185 165 149 129 114 118 112 101 109 109 69 71 107 23 113 129 152 142 189 230 226 241 237 221 225 215 203 237 267 233 190 185 200 213 222 231 251 271 279 289 213 192 210 212 211 214 222 229 227 227 224 223
219 223 224 225 225 222 220 220 220 219 217 216 215 214 215 219 220 225 235 234 233 224 223 231 200 191 215 204 189 183 188 183 183 188 185 184 184 168 155 134 118 121 109 86 86 92 55 47 139 171 136 163 174 167 205 215 185 197 210 208 237 237 217 218 247 237 185 191 209 212 226 237 251 268 269 285 305 190 216 212 210 220 222 229 230 228 232 228
218 219 219 221 222 221 220 218 218 218 214 213 213 209 209 213 216 222 225 222 213 211 219 204 198 210 299 212 197 161 180 180 177 179 171 171 171 158 146 135 135 134 132 163 172 141 147 107 124 184 181 192 196 202 216 214 166 200 207 193 199 226 237 229 242 236 187 196 214 209 224 233 241 257 258 269 276 249 241 234 227 233 230 234 233 232 241 240
219 218 215 216 218 219 218 217 218 217 210 209 204 192 196 195 192 220 214 215 216 226 245 192 197 227 304 278 176 153 163 174 172 167 164 164 152 137 126 130 136 153 165 171 170 158 158 159 200 205 190 195 202 219 230 241 247 219 196 206 209 221 243 235 249 266 200 202 221 214 226 232 232 249 251 249 257 251 245 243 241 239 236 232 229 232 236 237
219 218 214 213 214 214 214 214 215 212 208 205 197 183 175 180 173 196 190 222 234 231 249 250 220 232 252 312 157 153 133 156 201 171 165 162 147 140 162 161 148 184 182 152 138 148 159 187 221 215 195 188 193 218 235 244 252 243 206 224 227 219 242 251 255 298 276 225 238 226 231 241 238 245 251 240 235 240 233 232 238 237 238 236 232 237 237 239
216 216 214 211 211 211 210 211 211 210 206 200 195 193 212 191 168 109 150 220 245 223 239 252 279 264 259 289 170 161 132 138 206 188 169 163 159 167 183 170 171 183 160 132 131 152 173 207 219 210 194 189 192 206 219 232 241 243 232 239 258 231 263 284 276 325 320 236 259 265 245 248 248 248 255 241 224 235 228 222 226 224 231 237 232 236 239 243
215 215 214 210 209 208 207 208 208 207 201 194 192 198 212 200 188 120 115 166 247 206 216 233 240 254 252 268 190 174 155 156 180 189 177 170 172 175 168 173 184 174 157 164 168 168 194 215 207 187 176 181 190 197 204 222 233 233 230 231 246 244 235 273 289 355 339 280 307 323 292 266 259 264 268 247 220 234 244 236 233 225 224 231 228 227 229 231
214 214 213 209 208 206 206 206 204 202 199 196 200 206 205 193 207 234 155 75 261 202 198 211 220 238 235 228 201 193 182 173 173 179 182 177 164 162 169 178 181 177 176 184 184 189 215 210 150 151 168 177 181 188 193 211 226 225 223 225 235 228 209 219 261 2 341 317 319 322 303 275 247 252 265 262 242 243 251 250 256 255 246 246 253 246 232 228
214 213 212 208 206 206 203 201 201 200 196 199 210 211 201 190 217 225 176 313 273 218 196 198 204 233 227 207 196 198 188 198 182 170 180 182 165 155 175 181 178 187 190 185 188 203 226 197 139 147 164 174 178 186 190 198 218 226 220 218 220 212 198 169 104 59 359 305 267 247 275 275 243 231 240 251 264 265 261 256 258 261 258 255 258 254 245 238
214 213 212 208 206 202 199 200 202 197 192 204 212 207 197 198 216 190 150 319 261 202 174 172 168 206 207 185 157 152 171 215 199 168 174 181 175 163 170 180 188 194 185 176 194 214 204 199 159 151 159 169 179 196 189 183 202 229 226 206 203 199 194 189 156 127 169 251 240 199 232 275 306 262 244 238 259 265 251 245 251 253 256 253 248 249 249 246
213 212 211 210 206 197 193 189 189 187 188 210 206 195 193 195 194 171 160 264 235 167 157 171 166 182 187 165 146 150 186 166 110 179 179 179 179 171 170 176 183 189 171 156 209 197 153 175 176 158 159 166 180 199 183 174 189 230 341 195 193 196 195 190 174 164 200 260 293 258 226 260 284 263 249 245 265 275 262 249 253 251 250 249 247 246 240 236
214 212 209 210 206 197 190 166 169 184 194 190 183 184 186 180 163 137 170 227 195 130 152 182 170 169 172 152 152 174 226 148 153 195 188 183 180 157 184 185 182 176 164 168 198 181 159 174 178 165 158 168 182 177 160 163 165 165 43 63 123 170 180 167 160 184 217 27 279 263 210 244 264 251 246 240 239 262 266 255 252 253 251 246 245 242 233 231
213 211 209 209 205 198 195 182 177 190 190 166 167 178 172 157 143 115 221 222 155 99 167 165 158 158 152 148 165 187 214 163 182 173 174 187 185 107 208 194 185 174 169 182 191 173 165 176 174 164 156 182 179 129 140 149 137 160 141 86 70 66 67 98 149 164 138 185 235 222 183 230 264 231 216 224 218 234 253 256 248 251 254 251 245 237 227 227
212 210 210 206 201 195 194 195 192 189 184 174 167 165 155 142 143 187 223 216 97 166 183 166 170 154 151 160 180 188 187 200 223 153 165 183 171 147 289 222 169 168 175 193 193 172 160 163 162 166 173 181 158 121 120 128 132 148 120 66 30 34 67 65 59 118 135 223 232 201 186 205 260 238 186 191 218 213 226 255 266 262 258 255 249 236 227 232
210 208 208 204 200 191 187 201 193 179 181 174 160 152 144 140 186 207 208 205 38 179 163 166 168 153 162 174 176 181 187 193 184 169 173 177 162 164 181 50 109 160 177 195 197 168 133 149 163 204 191 154 115 97 74 116 143 137 90 62 15 355 36 55 10 85 181 230 220 181 185 190 226 249 213 223 248 215 210 237 260 263 259 256 252 242 231 239
209 208 206 202 200 190 189 202 188 178 177 165 153 144 146 183 209 209 183 109 34 199 163 164 169 163 173 181 178 176 184 189 185 181 175 176 177 173 182 181 162 171 185 183 183 171 162 175 177 187 184 156 130 113 93 132 163 149 121 126 115 260 276 70 214 199 209 247 225 172 180 192 229 245 242 252 272 270 254 253 261 264 262 260 256 247 240 197
209 208 205 202 199 192 193 199 190 184 171 160 152 140 172 211 206 195 196 170 211 240 182 173 177 172 171 178 185 179 182 185 179 185 184 178 184 186 192 192 176 175 175 170 174 157 158 190 174 156 167 169 156 153 164 173 177 178 171 165 173 190 189 178 193 99 172 266 284 199 177 200 255 249 231 230 247 258 256 256 261 258 252 253 244 227 242 182
208 207 205 202 199 196 194 193 190 180 160 153 159 164 182 219 194 182 207 219 237 273 207 177 175 176 175 181 185 175 181 191 177 181 187 181 188 190 192 199 189 172 96 161 174 164 176 194 173 169 173 177 179 182 177 158 167 185 173 159 176 181 181 186 181 182 182 251 298 248 176 195 223 234 204 196 219 241 242 251 262 255 243 247 254 233 256 216
204 205 205 200 197 197 192 190 188 175 156 151 182 186 189 208 184 179 205 216 215 286 246 190 174 178 184 184 182 179 185 191 178 181 187 185 194 188 184 194 189 174 151 170 175 176 192 210 173 175 169 171 183 190 153 127 148 189 139 149 198 190 171 188 176 164 143 89 274 210 208 219 216 259 252 227 256 273 273 273 283 282 260 256 306 290 273 267
196 199 199 195 195 193 187 189 184 169 155 157 195 197 202 206 190 170 188 202 202 156 211 215 183 177 188 184 181 187 191 181 173 183 192 188 196 193 188 193 185 181 179 176 168 179 192 201 177 173 167 179 182 173 165 161 159 165 154 174 200 105 125 132 272 126 109 225 223 185 239 266 281 279 268 256 266 276 283 276 250 263 263 232 244 250 246 228
185 189 193 194 194 190 187 189 178 164 156 176 204 203 201 204 198 170 182 196 194 164 156 232 189 177 184 183 183 185 182 168 175 186 196 186 195 195 191 196 183 184 196 192 191 191 171 172 182 171 173 192 177 143 168 207 148 149 175 171 128 47 98 135 180 140 141 230 236 203 229 231 178 259 280 261 241 241 257 267 241 247 265 247 239 239 230 201
177 180 194 198 194 190 189 185 169 159 160 188 211 215 197 200 197 181 206 190 187 191 214 265 198 180 182 180 185 183 176 178 182 182 188 183 193 190 185 191 182 185 199 193 182 206 162 140 207 188 178 173 138 133 167 293 343 144 164 165 146 140 191 169 173 174 176 214 242 214 224 216 192 233 258 247 227 217 220 245 248 247 250 249 247 233 189 180
166 170 206 198 193 189 183 176 162 158 175 188 212 219 185 215 231 203 216 212 197 189 208 254 253 187 196 183 177 179 180 188 183 177 193 189 194 191 183 181 180 186 194 184 177 199 168 152 213 199 176 155 148 175 181 181 353 72 135 172 190 202 194 178 172 178 179 195 220 207 209 223 215 224 233 232 229 225 228 243 249 242 233 235 236 206 167 162
153 162 172 178 187 185 172 165 158 169 185 192 216 215 165 197 238 241 236 209 236 173 195 238 248 209 223 195 181 180 185 195 188 183 198 186 185 202 188 181 177 181 188 188 190 184 154 187 195 163 162 166 176 202 188 176 166 145 158 183 201 196 154 136 160 161 144 165 214 233 235 251 240 216 217 223 227 230 243 260 265 257 231 223 214 176 161 156
147 176 162 166 172 168 158 155 165 177 180 200 213 223 188 185 191 226 241 183 192 228 151 231 238 224 237 208 190 180 182 197 192 185 197 187 190 213 192 185 175 172 179 187 199 187 167 193 182 161 178 187 197 208 193 179 172 174 183 184 187 180 140 138 192 180 146 166 179 197 240 255 245 202 205 218 224 225 234 244 245 221 174 163 172 167 157 154
154 179 156 160 162 155 151 167 202 170 198 204 188 182 213 196 172 203 220 184 184 217 98 15 242 226 245 234 206 184 178 192 190 184 193 195 196 200 191 185 172 170 175 182 195 188 129 129 150 157 181 191 223 229 168 175 182 190 202 187 184 184 164 175 193 175 181 214 170 163 236 253 239 204 196 200 207 199 195 197 188 188 184 166 169 172 164 165
158 156 143 155 158 151 152 202 178 176 221 190 169 185 194 202 173 181 199 199 198 168 153 217 211 204 228 240 229 196 181 185 193 189 185 192 200 198 186 177 167 171 175 175 187 182 76 116 144 137 129 45 353 8 72 166 183 191 228 204 190 194 190 189 188 169 181 199 186 191 235 258 258 231 202 134 166 185 171 161 146 137 303 314 189 145 151 161
141 117 134 157 160 155 160 204 183 192 199 150 175 199 187 185 188 181 187 197 192 157 175 218 201 199 223 227 238 217 192 183 193 192 180 186 198 185 177 178 171 172 181 180 179 179 176 175 155 144 145 133 145 100 118 180 188 194 206 201 194 191 180 160 136 155 182 197 189 187 227 256 259 251 333 63 120 229 261 178 123 70 43 24 22 52 106 127
132 79 43 156 161 161 179 203 179 194 190 166 183 193 184 199 207 194 186 193 196 164 175 232 203 192 253 263 248 223 211 201 182 180 156 180 197 169 172 180 177 178 189 184 168 165 179 191 174 169 177 182 187 189 183 182 189 197 193 189 192 188 178 168 162 168 187 201 183 166 210 246 264 283 298 294 161 249 270 243 200 24 90 97 75 62 72 60
138 111 62 122 152 175 211 191 159 194 190 174 183 190 190 203 222 203 191 200 202 171 191 248 193 175 253 261 253 219 213 249 138 152 146 166 207 270 176 178 183 190 188 169 154 150 158 203 197 193 198 198 197 191 153 150 167 183 184 186 192 190 181 169 136 174 192 186 188 205 212 233 259 265 258 252 242 255 258 231 202 199 159 115 96 81 21 318
121 127 152 128 85 185 220 256 168 184 180 176 181 182 191 199 196 184 200 210 193 180 214 242 177 192 219 219 242 223 197 209 109 139 154 154 205 283 189 178 184 188 175 157 157 144 116 208 207 206 214 207 177 141 141 154 175 186 184 184 186 183 179 179 191 200 189 165 211 231 209 216 250 252 242 231 230 248 263 257 241 200 152 117 26 341 308 286
137 146 163 133 109 175 197 202 191 186 175 177 178 173 188 197 192 189 203 205 174 180 212 225 198 212 215 207 230 225 175 155 97 136 145 130 137 200 185 179 190 181 161 160 173 147 139 207 203 201 220 214 146 156 161 167 184 187 182 182 181 179 180 189 204 202 171 171 216 216 194 207 236 247 248 230 202 223 252 254 264 5 80 9 330 313 291 276
124 96 142 133 128 181 189 183 179 183 181 182 186 180 184 192 196 199 173 145 187 196 206 223 219 213 214 218 234 224 181 167 174 178 163 149 169 174 161 161 296 217 153 161 176 162 172 196 182 187 213 215 176 170 170 173 183 184 185 185 182 182 185 192 202 196 174 195 220 209 195 215 231 240 252 247 177 186 238 251 322 31 22 302 293 279 269 264
149 129 149 145 104 164 171 151 156 176 191 195 207 202 189 193 198 201 170 169 196 193 194 216 226 215 211 215 231 240 209 182 177 179 162 154 182 191 175 174 162 111 126 152 165 208 204 186 156 165 199 225 200 183 182 181 183 186 190 187 181 181 186 194 202 195 185 209 225 214 204 231 242 240 254 271 176 190 241 277 328 340 233 243 252 253 255 258
150 149 142 141 117 153 167 164 161 175 189 198 209 203 196 203 198 193 197 200 197 188 192 209 215 213 214 213 219 236 233 197 179 177 165 161 172 176 176 175 156 150 146 136 148 181 188 173 122 142 184 224 218 192 191 177 179 190 192 181 175 178 186 197 203 199 195 203 214 212 207 235 243 233 253 276 264 247 258 279 290 264 209 222 238 245 250 252
32 45 124 129 137 163 172 163 161 184 196 201 204 197 199 209 196 185 198 218 208 206 205 207 206 195 214 228 225 230 235 207 168 163 156 143 120 95 112 144 151 158 161 150 142 140 150 152 133 153 183 206 194 184 154 114 161 196 197 180 180 186 192 200 209 211 205 198 199 204 214 228 229 167 214 258 262 269 276 250 221 214 207 216 222 227 236 243
Height
782 784 785 786 787 789 790 792 793 794 796 797 798 800 801 802 803 804 805 806 808 809 810 811 812 813 814 815 816 816 817 817 817 818 817 815 816 818 819 819 820 821 823 824 824 825 824 824 823 822 823 823 823 822 821 819 818 825 834 844 848 846 841 832 827 825 823 824 821 818 815 817 821 818 815 815 817 819 821 820 820 820 820 821 822 823 826 829
780 782 783 784 785 787 788 790 791 793 794 796 797 798 799 801 802 803 804 805 807 808 809 810 811 812 813 814 814 815 816 816 816 815 812 811 814 816 817 818 820 821 822 824 824 824 826 825 823 823 824 825 824 823 823 820 820 828 835 843 845 839 831 824 823 821 820 823 821 819 818 817 819 818 816 820 824 822 824 824 822 825 826 824 823 825 827 828
778 780 781 782 784 785 787 788 790 791 792 794 795 797 798 799 800 801 803 804 805 807 808 809 810 811 812 813 814 815 815 815 815 810 806 809 813 813 815 817 818 821 822 823 824 824 825 825 824 825 826 828 825 824 825 823 823 827 832 842 840 830 825 822 821 821 818 818 819 820 818 818 818 816 817 821 824 824 825 825 824 827 827 827 825 825 826 827
776 777 779 780 782 783 785 786 788 789 791 792 793 795 796 797 799 800 801 803 804 805 806 808 809 810 812 812 814 814 814 817 812 804 803 807 810 811 813 815 817 820 821 822 823 824 825 824 825 825 827 830 827 825 827 825 825 826 829 838 833 824 826 824 820 819 817 816 818 820 819 821 819 816 818 821 825 827 824 821 820 821 822 825 825 825 826 827
773 775 777 778 780 781 783 784 786 787 789 790 792 793 795 796 797 799 800 801 803 804 805 807 808 809 811 811 813 813 816 820 808 798 802 804 806 809 810 813 816 818 820 822 823 824 825 824 825 826 829 832 830 829 829 823 822 827 827 828 825 823 827 823 818 818 816 817 819 820 822 822 818 817 818 820 826 826 820 817 814 813 816 819 821 823 824 825
771 772 774 776 778 780 781 783 784 785 787 788 790 791 793 795 796 797 799 800 801 803 804 806 807 808 810 811 813 812 815 816 802 798 801 801 804 806 808 811 814 817 819 821 823 824 825 825 827 829 830 832 833 831 828 821 821 829 827 823 822 822 824 821 817 817 815 818 821 821 822 820 820 821 818 819 822 819 815 813 811 810 811 814 817 820 823 823
768 770 772 774 776 778 779 781 782 784 785 787 788 790 792 793 794 796 797 799 800 801 803 805 806 807 809 810 812 812 811 807 800 800 801 800 803 803 807 810 813 817 818 820 822 823 824 825 829 830 831 834 833 830 827 822 821 828 829 822 820 819 820 818 817 817 816 817 819 818 820 820 823 823 818 819 817 814 813 811 809 808 809 813 816 818 820 820
766 768 770 772 773 775 777 779 780 782 784 785 787 789 791 792 793 795 796 798 799 800 802 803 805 806 808 809 809 810 808 803 800 801 800 801 803 803 807 810 812 815 816 819 820 822 824 826 828 828 832 833 829 828 825 825 825 826 827 822 819 818 817 816 816 817 816 816 817 817 820 821 821 820 819 819 815 811 812 811 810 809 811 814 816 817 818 818
764 765 767 769 771 773 776 777 779 780 782 783 785 787 789 790 792 793 795 796 797 799 800 802 804 805 807 808 808 807 801 798 801 801 800 802 804 804 806 808 811 814 815 818 818 821 824 826 827 826 830 829 827 826 823 828 830 823 822 820 819 818 815 816 817 817 817 816 816 819 822 820 817 819 820 816 812 810 809 810 810 811 812 814 814 815 815 816
761 763 765 767 769 771 773 775 777 779 781 782 784 785 787 789 790 792 794 795 796 798 799 801 803 804 806 806 807 805 796 796 800 800 801 802 804 805 806 807 809 812 814 816 817 820 822 823 824 824 827 827 826 826 823 827 826 818 818 818 817 817 814 815 817 816 817 816 816 820 823 820 817 821 823 815 809 808 808 810 810 811 812 813 813 812 812 813
759 761 763 764 767 769 771 774 776 777 779 780 782 784 785 787 789 791 792 794 795 797 798 800 802 803 804 805 806 801 795 796 798 799 801 802 803 804 806 807 808 810 812 814 816 818 820 822 822 824 827 827 827 825 822 821 819 816 817 819 817 816 816 815 816 817 817 818 816 818 821 820 819 821 821 813 807 807 809 810 810 810 811 810 811 811 811 810
756 758 760 762 764 766 769 772 773 776 777 779 781 782 784 785 787 789 791 792 794 796 797 798 801 801 803 804 801 797 796 797 797 799 800 800 802 803 804 806 806 808 809 812 815 817 820 821 822 826 827 827 829 828 823 818 817 817 817 822 820 817 818 816 815 816 816 819 814 817 826 826 822 820 815 810 806 806 808 809 810 810 809 808 809 809 809 809
754 756 758 760 762 764 767 769 772 774 776 778 779 781 783 784 786 788 789 791 792 794 796 797 799 800 804 802 794 794 796 796 797 798 799 801 802 803 804 805 805 807 808 810 813 816 818 820 822 825 825 828 830 827 822 817 817 818 818 823 824 825 824 815 814 815 815 817 812 819 835 830 821 816 810 807 805 807 810 810 809 809 808 808 807 807 808 807
751 754 756 758 760 762 764 767 770 772 774 776 778 780 782 783 785 786 788 789 791 793 795 796 798 800 802 797 790 792 795 796 797 797 798 800 801 803 804 805 806 807 808 810 813 815 817 819 821 824 825 828 828 825 823 820 819 820 822 824 828 835 829 814 813 816 818 817 810 820 836 829 818 814 808 805 804 807 810 809 808 808 807 807 806 805 805 804
749 751 754 756 758 760 762 765 767 770 772 774 776 779 780 782 783 785 787 788 790 792 794 796 796 797 799 794 789 791 793 795 796 796 797 798 799 802 804 805 807 807 807 810 812 814 816 818 821 825 827 828 829 832 832 828 823 822 829 833 831 835 831 817 813 814 817 816 811 821 834 828 817 810 804 802 803 805 808 807 806 805 805 805 804 803 803 801
746 749 752 754 756 758 760 763 765 768 770 772 775 777 779 781 783 784 786 787 789 791 793 795 793 795 797 791 787 788 790 791 792 794 797 797 798 800 803 805 806 808 808 810 812 814 816 819 823 826 827 830 833 838 840 839 833 826 832 838 834 835 835 826 815 811 813 816 816 820 827 824 813 805 802 801 801 803 806 806 804 804 803 803 803 802 801 800
743 747 749 752 754 755 758 761 763 766 768 771 774 776 778 780 782 784 785 786 788 790 792 792 791 794 793 786 785 786 786 787 789 792 795 796 797 798 802 805 807 809 809 810 812 815 818 821 826 828 829 831 833 839 844 845 842 836 834 838 834 832 835 832 820 810 810 815 818 818 819 818 809 803 801 800 800 802 804 804 803 803 802 801 801 800 800 799
741 744 747 749 751 753 756 758 761 764 767 770 773 775 777 779 781 782 783 785 787 790 791 789 791 792 786 780 781 781 781 784 787 789 792 795 797 798 800 804 807 809 810 813 813 817 822 824 827 831 832 833 833 837 841 836 836 838 837 838 837 832 831 831 823 813 810 814 817 819 820 817 811 805 802 800 799 802 803 802 802 800 800 799 799 799 798 797
739 742 744 747 749 751 753 756 759 762 765 769 771 774 776 778 780 781 782 784 784 784 783 781 782 781 775 771 774 777 779 782 785 787 790 794 796 798 800 803 806 809 813 816 816 817 822 826 830 831 832 832 830 831 831 827 826 831 832 834 836 833 829 825 819 811 809 816 818 819 820 817 813 807 804 802 799 801 802 800 800 800 798 798 797 797 796 795
737 739 742 744 747 749 751 754 757 760 764 767 769 773 775 777 781 782 780 781 778 776 773 772 774 773 770 768 769 775 780 782 785 786 788 792 794 798 801 804 808 811 813 814 817 817 817 826 829 826 825 826 827 826 826 826 825 826 828 830 830 830 828 821 816 809 807 815 817 815 816 815 813 808 803 802 800 801 802 801 801 800 798 797 796 796 795 794
734 737 740 742 744 746 749 752 755 758 762 765 767 770 771 772 777 778 777 778 775 774 773 771 773 773 769 768 768 771 778 784 786 785 787 790 792 798 803 805 808 812 811 811 816 816 817 825 821 814 816 819 822 824 826 828 828 829 830 830 831 831 828 820 816 812 808 815 816 812 815 814 810 806 801 800 801 801 801 800 800 799 797 797 796 795 794 792
732 735 737 740 742 744 747 750 753 757 760 763 765 767 766 766 769 769 771 777 774 772 775 773 774 773 769 770 771 769 774 783 787 785 785 787 789 794 801 804 806 809 810 811 815 817 820 817 807 804 809 814 819 821 826 829 830 833 834 835 836 830 826 821 816 814 813 817 818 814 817 815 808 804 799 798 799 797 796 796 797 796 796 796 795 794 792 791
731 732 735 738 740 742 745 748 752 755 758 760 761 763 764 765 768 767 770 775 771 769 773 773 775 774 770 771 771 770 772 778 783 783 782 784 786 789 796 802 804 806 810 809 810 815 814 806 799 801 806 812 818 820 824 830 831 833 835 838 837 830 829 828 822 820 817 819 819 817 818 815 809 805 800 796 795 794 792 792 791 791 792 791 790 790 789 789
729 730 733 735 738 741 743 747 751 753 755 757 759 760 763 766 768 769 771 774 771 766 766 769 772 771 768 769 770 771 772 771 774 778 779 782 785 787 791 796 800 805 806 803 804 807 805 800 798 802 806 809 815 819 823 829 831 831 830 832 832 829 829 829 826 824 821 820 819 820 824 817 809 809 803 795 793 793 791 791 790 789 788 787 787 787 786 786
726 729 731 733 737 739 742 747 748 750 752 755 757 758 764 767 767 769 774 778 773 766 764 766 769 767 765 768 770 771 773 769 767 771 775 778 780 785 789 790 795 803 804 802 805 806 803 801 799 802 807 807 812 817 819 824 830 829 825 823 824 825 827 827 828 828 832 833 822 823 836 824 807 807 804 796 795 794 792 791 791 788 786 786 786 784 783 782
725 727 729 732 735 737 742 744 744 748 752 753 753 757 764 766 768 770 775 784 777 764 762 765 765 760 758 764 768 771 776 771 765 766 770 773 774 778 786 790 791 795 799 802 805 805 804 803 799 802 806 807 811 813 812 816 826 829 822 817 819 822 827 828 828 830 837 837 820 820 837 831 814 808 802 798 798 795 792 791 789 787 784 783 782 781 780 780
723 725 727 730 733 736 740 741 743 747 748 749 750 757 763 764 770 771 776 790 780 757 759 763 757 750 750 756 762 769 771 765 767 768 765 769 771 772 782 787 787 788 791 799 806 800 799 804 802 801 804 807 811 810 806 810 821 827 822 818 818 820 825 825 827 832 831 829 823 818 826 832 825 811 799 796 797 794 791 790 787 784 782 780 778 777 776 776
721 723 725 728 731 733 736 739 742 743 743 746 749 757 762 762 770 773 779 788 763 740 749 755 749 746 746 752 757 763 761 756 763 769 764 766 770 772 778 780 780 783 783 792 800 792 790 800 802 800 804 807 807 805 801 805 818 826 823 821 821 822 823 821 827 833 828 830 835 825 821 831 827 810 799 797 799 797 792 788 784 780 778 777 775 773 771 770
718 722 724 727 730 732 735 738 739 739 742 746 750 756 760 764 772 775 781 775 742 728 739 741 743 747 748 754 757 758 759 757 759 762 763 767 769 772 775 773 773 779 781 783 789 789 789 792 794 797 803 805 803 801 800 803 815 823 821 821 825 826 825 824 827 830 830 836 837 826 821 829 824 807 802 804 804 800 791 784 781 778 776 774 771 769 767 766
716 719 722 726 729 731 735 737 737 739 742 745 749 753 758 767 771 773 775 758 730 729 737 734 736 742 746 753 756 755 758 760 759 760 763 766 769 771 773 773 774 780 785 783 785 789 787 786 790 794 795 796 798 802 802 804 811 817 820 824 828 829 826 828 828 826 833 836 827 820 817 824 827 810 799 800 797 791 786 782 780 776 774 771 768 767 764 764
713 717 720 723 725 728 732 734 736 738 740 743 747 752 759 766 767 768 762 741 725 728 733 734 734 735 741 746 749 753 756 759 760 759 761 764 769 772 773 777 780 784 788 788 789 792 790 792 794 790 787 789 797 806 808 809 811 814 821 830 834 831 828 833 834 831 835 828 816 815 813 821 829 812 793 788 783 781 783 781 779 776 773 770 767 766 765 765
711 714 717 720 723 726 727 729 733 738 739 741 744 751 758 760 759 756 745 735 735 733 729 732 731 730 736 739 742 748 750 753 756 756 756 761 766 767 767 770 774 779 782 783 788 792 792 791 790 787 786 786 796 809 814 815 815 815 823 835 841 838 834 836 835 832 833 824 813 813 815 822 822 802 788 784 778 778 779 777 776 775 772 768 766 766 765 765
707 711 715 718 720 723 725 728 733 737 738 741 745 750 757 756 747 741 738 736 738 735 728 727 726 726 732 736 738 742 745 748 750 753 753 756 762 763 761 761 761 767 773 776 783 789 792 791 789 791 791 787 790 801 809 811 812 814 817 826 832 833 836 837 832 830 831 823 814 813 818 823 814 792 781 780 776 775 773 772 772 770 768 766 765 765 764 764
705 709 712 715 718 721 724 728 731 734 738 742 745 747 754 754 738 732 739 736 731 733 728 723 725 728 728 729 732 736 742 745 745 750 753 754 758 760 761 761 760 764 770 775 779 782 785 787 785 785 785 784 783 784 789 795 804 808 806 812 818 818 822 827 825 826 826 820 817 819 820 820 809 787 774 773 773 771 769 768 767 765 763 762 764 765 763 762
702 706 710 713 717 719 723 727 729 733 738 742 744 741 744 743 733 731 737 732 729 733 729 723 725 730 730 728 728 729 734 741 743 748 751 750 752 753 756 758 760 762 766 772 776 775 777 778 774 772 772 776 780 779 780 790 804 808 805 812 816 807 804 813 819 819 820 823 821 819 815 806 793 780 771 771 771 766 765 764 763 763 761 761 763 762 760 761
700 704 708 711 713 716 721 725 726 730 735 740 742 739 735 731 728 730 728 724 727 728 728 728 724 727 731 729 731 731 729 734 742 746 747 747 748 748 749 751 754 759 758 761 767 770 774 775 771 771 773 772 774 777 778 782 793 802 806 809 808 801 799 811 823 821 820 826 817 807 806 800 791 781 768 767 769 764 762 762 761 761 760 760 761 759 759 762
697 702 705 707 710 714 719 722 725 729 735 740 739 733 729 726 724 724 720 719 721 721 726 728 719 719 726 727 729 731 730 734 739 742 743 745 744 743 745 747 749 754 752 752 758 760 765 774 772 771 777 775 770 775 780 777 781 795 804 802 801 806 805 808 821 825 827 828 812 800 802 802 801 790 769 765 768 761 757 759 759 758 758 759 757 757 760 762
693 699 703 704 708 712 716 721 724 728 734 738 735 728 727 726 723 722 720 717 717 719 727 727 715 710 715 721 724 725 727 731 735 738 739 741 738 734 738 743 745 748 747 748 754 753 756 772 778 771 773 776 773 778 785 783 781 785 790 789 793 805 808 807 814 818 821 823 812 802 801 801 800 788 770 767 765 757 756 759 759 757 756 756 754 755 760 761
691 699 702 702 706 711 715 720 725 729 733 734 731 729 729 727 723 720 719 719 717 720 725 724 717 714 713 713 717 720 723 723 727 732 733 734 734 727 727 733 739 743 743 744 749 749 750 766 777 773 771 775 776 778 784 787 786 784 785 787 787 790 795 797 799 799 802 808 806 802 802 799 789 775 767 766 761 756 759 759 757 755 754 754 753 754 757 758
690 697 698 698 705 711 715 721 725 728 730 729 726 726 727 726 724 720 718 720 721 721 722 719 720 724 718 711 711 715 719 718 720 726 727 728 730 726 723 725 731 737 741 742 745 747 751 758 768 774 774 775 775 772 771 776 782 784 788 791 788 787 791 791 792 792 794 800 801 800 800 788 771 762 762 761 756 755 757 756 755 755 753 752 752 752 753 753
688 695 696 696 703 710 715 722 725 724 724 725 725 725 724 722 721 720 719 721 722 722 723 721 722 726 723 714 708 709 714 715 717 721 724 724 725 726 722 719 724 731 738 745 745 745 749 752 761 773 774 771 768 761 759 764 770 773 777 780 780 783 788 793 798 795 791 794 794 795 794 776 757 755 757 755 754 754 755 755 755 755 753 753 752 751 751 752
687 693 693 694 699 707 715 720 721 722 721 720 720 723 723 718 718 719 718 720 722 723 726 727 725 727 726 718 707 703 708 712 713 716 719 719 719 720 717 715 720 724 730 739 741 739 742 748 759 768 769 768 767 760 759 762 764 767 770 772 775 778 781 787 793 792 792 793 789 792 792 771 752 750 751 751 753 753 753 753 753 754 754 753 752 751 752 753
685 689 692 694 697 704 714 718 719 721 719 716 715 717 720 718 717 718 717 718 722 723 726 726 723 723 724 721 712 704 703 706 708 709 711 714 714 713 713 715 719 722 727 735 739 738 740 745 757 767 769 769 770 766 764 764 766 772 774 772 773 775 775 777 780 781 787 789 787 793 794 772 751 747 748 750 751 751 753 753 753 755 754 753 753 753 754 755
683 688 692 696 698 703 711 712 712 715 715 715 716 716 717 717 715 716 715 716 718 721 723 720 718 719 719 719 717 708 701 701 704 705 707 709 709 707 710 714 717 721 726 728 730 734 738 741 749 763 769 771 772 773 774 772 770 770 769 768 769 770 773 778 778 778 784 785 781 788 791 772 752 748 749 751 750 748 750 752 753 754 754 753 754 754 755 756
681 689 693 696 697 700 704 703 703 707 710 714 717 715 715 716 714 712 712 713 713 716 718 714 713 716 718 719 717 709 703 699 699 704 707 707 706 705 707 711 713 714 715 717 719 726 735 736 737 747 755 756 756 755 755 758 760 760 759 763 766 766 769 773 775 780 786 785 781 784 782 767 753 749 751 752 753 752 750 751 752 752 752 753 753 754 755 755
674 685 695 699 701 701 700 699 700 704 707 712 715 715 715 716 713 710 709 711 711 712 714 712 712 715 719 724 719 710 706 701 697 702 707 706 708 707 704 707 709 709 710 714 717 725 734 733 729 732 734 732 733 732 732 738 748 754 755 758 761 763 765 767 771 777 779 780 784 780 772 766 758 752 752 752 753 752 750 751 752 751 751 753 753 754 754 754
671 680 688 694 699 704 703 701 702 703 704 708 709 710 712 713 712 711 710 709 708 710 711 710 713 715 717 724 721 710 707 704 699 702 706 705 710 711 704 703 706 707 710 714 717 724 733 733 730 731 728 726 728 729 730 734 740 744 747 751 756 759 763 766 767 766 766 776 784 775 768 770 761 749 749 751 750 748 747 748 749 750 752 753 753 754 754 754
672 677 681 682 688 696 698 695 695 698 700 702 703 703 708 711 710 710 710 709 707 709 710 708 710 712 712 718 718 709 706 707 705 706 706 706 711 713 710 710 711 709 712 717 717 720 727 730 729 731 732 731 731 731 731 732 734 737 740 745 750 754 759 762 761 758 761 770 771 764 765 768 755 744 743 745 747 747 745 745 746 749 752 752 752 753 753 752
673 677 680 681 682 686 688 686 690 696 698 698 699 699 702 707 707 705 705 709 709 708 708 706 703 705 708 713 717 709 699 698 703 705 705 706 709 710 712 717 718 715 713 716 718 718 719 723 726 730 732 731 733 735 734 732 735 738 739 741 743 748 752 753 755 756 758 761 757 756 762 760 748 742 739 737 743 746 743 744 748 751 753 753 752 753 751 751
671 673 677 682 684 684 686 688 692 698 700 699 699 697 697 700 701 699 700 703 704 704 706 704 699 699 702 707 715 709 689 680 687 695 698 703 707 707 707 709 713 717 717 716 719 719 717 719 722 726 731 733 734 738 735 732 735 738 739 741 743 747 751 753 753 755 759 760 755 755 763 759 745 739 737 737 743 745 743 746 750 752 753 752 752 752 751 750
669 669 671 679 684 685 687 688 690 695 698 699 697 694 694 694 693 694 696 695 694 696 699 698 697 698 699 702 708 704 688 676 677 682 685 690 695 699 699 700 706 715 716 717 720 720 718 722 723 725 733 735 733 737 739 734 735 737 738 742 746 747 749 748 746 746 750 752 754 759 765 755 740 737 739 738 738 740 744 747 749 751 752 750 749 748 748 748
669 669 669 674 681 684 685 688 692 694 692 689 688 687 687 687 687 690 694 694 690 690 692 693 693 697 702 703 699 693 688 682 679 681 682 684 688 693 696 698 702 708 711 714 719 720 719 723 725 726 731 733 729 733 737 735 738 740 736 736 738 739 739 740 738 737 738 742 749 755 751 739 732 737 741 738 735 738 742 745 747 748 748 747 747 746 745 745